contact:dominique.lefevre@mio.osupytheas.fr, maurice.libes@osupytheas.fr, didier.mallarino@osupytheas.fr
Project:EMSO http://www.emso-fr.org/EMSO-France
Depth: 2436.0 m
Title:EMSO Ligure Ouest : Data MII capteur CSTAR
DateTime,Latitude,Longitude,Instrument_Serial,Reference_Counts,Signal_Counts,Corrected_Signal_raw_counts,Calculated_Beam_c_inverse_meters,Internal_thermistor_counts
DateTime,Latitude,Longitude,Instrument_Serial,Reference_Counts,Signal_Counts,Corrected_Signal_raw_counts,Calculated_Beam_c_inverse_meters,Internal_thermistor_counts
2019-06-08T00:01:12,42.805,6.029,CST-1368DR,9153,12808,15546,0.018,551
2019-06-08T00:04:13,42.805,6.029,CST-1368DR,9153,12808,15546,0.018,551
2019-06-08T00:07:15,42.805,6.029,CST-1368DR,9153,12807,15545,0.018,551
2019-06-08T00:10:16,42.805,6.029,CST-1368DR,9153,12806,15544,0.018,550
2019-06-08T00:13:17,42.805,6.029,CST-1368DR,9153,12807,15545,0.018,551
2019-06-08T00:16:19,42.805,6.029,CST-1368DR,9153,12807,15544,0.018,551
2019-06-08T00:19:20,42.805,6.029,CST-1368DR,9153,12809,15547,0.018,551
2019-06-08T00:22:22,42.805,6.029,CST-1368DR,9153,12808,15546,0.018,550
2019-06-08T00:25:23,42.805,6.029,CST-1368DR,9153,12807,15545,0.018,551
2019-06-08T00:28:25,42.805,6.029,CST-1368DR,9153,12808,15546,0.018,550
2019-06-08T00:31:26,42.805,6.029,CST-1368DR,9153,12808,15546,0.018,551
2019-06-08T00:34:27,42.805,6.029,CST-1368DR,9153,12807,15545,0.018,551
2019-06-08T00:37:29,42.805,6.029,CST-1368DR,9153,12807,15544,0.018,551
2019-06-08T00:40:30,42.805,6.029,CST-1368DR,9153,12808,15546,0.018,551
2019-06-08T00:43:32,42.805,6.029,CST-1368DR,9153,12806,15544,0.018,551
2019-06-08T00:46:33,42.805,6.029,CST-1368DR,9153,12808,15546,0.018,551
2019-06-08T00:49:34,42.805,6.029,CST-1368DR,9153,12806,15544,0.018,550
2019-06-08T00:52:36,42.805,6.029,CST-1368DR,9153,12807,15545,0.018,551
2019-06-08T00:55:37,42.805,6.029,CST-1368DR,9153,12808,15546,0.018,551
2019-06-08T00:58:39,42.805,6.029,CST-1368DR,9153,12807,15544,0.018,551
2019-06-08T01:01:40,42.805,6.029,CST-1368DR,9153,12808,15546,0.018,551
2019-06-08T01:04:41,42.805,6.029,CST-1368DR,9153,12807,15545,0.018,551
2019-06-08T01:07:43,42.805,6.029,CST-1368DR,9153,12805,15542,0.019,551
2019-06-08T01:10:44,42.805,6.029,CST-1368DR,9152,12804,15542,0.019,551
2019-06-08T01:13:46,42.805,6.029,CST-1368DR,9153,12807,15545,0.018,551
2019-06-08T01:16:47,42.805,6.029,CST-1368DR,9153,12800,15537,0.020,551
2019-06-08T01:19:48,42.805,6.029,CST-1368DR,9153,12808,15546,0.018,551
2019-06-08T01:22:50,42.805,6.029,CST-1368DR,9152,12802,15541,0.019,551
2019-06-08T01:25:51,42.805,6.029,CST-1368DR,9152,12804,15543,0.019,550
2019-06-08T01:28:53,42.805,6.029,CST-1368DR,9152,12808,15548,0.017,551
2019-06-08T01:31:54,42.805,6.029,CST-1368DR,9152,12806,15545,0.018,551
2019-06-08T01:34:56,42.805,6.029,CST-1368DR,9152,12808,15547,0.018,551
2019-06-08T01:37:57,42.805,6.029,CST-1368DR,9152,12808,15547,0.018,551
2019-06-08T01:40:58,42.805,6.029,CST-1368DR,9152,12808,15548,0.017,551
2019-06-08T01:44:00,42.805,6.029,CST-1368DR,9152,12807,15547,0.018,551
2019-06-08T01:47:01,42.805,6.029,CST-1368DR,9152,12807,15546,0.018,551
2019-06-08T01:50:03,42.805,6.029,CST-1368DR,9152,12807,15546,0.018,551
2019-06-08T01:53:04,42.805,6.029,CST-1368DR,9152,12807,15546,0.018,551
2019-06-08T01:56:05,42.805,6.029,CST-1368DR,9152,12806,15546,0.018,551
2019-06-08T01:59:07,42.805,6.029,CST-1368DR,9152,12808,15547,0.018,550
2019-06-08T02:02:08,42.805,6.029,CST-1368DR,9152,12805,15544,0.018,551
2019-06-08T02:05:10,42.805,6.029,CST-1368DR,9152,12807,15547,0.018,551
2019-06-08T02:08:11,42.805,6.029,CST-1368DR,9152,12806,15545,0.018,551
2019-06-08T02:11:12,42.805,6.029,CST-1368DR,9152,12807,15546,0.018,551
2019-06-08T02:14:14,42.805,6.029,CST-1368DR,9152,12805,15544,0.018,551
2019-06-08T02:17:15,42.805,6.029,CST-1368DR,9152,12807,15546,0.018,551
2019-06-08T02:20:17,42.805,6.029,CST-1368DR,9152,12807,15546,0.018,551
2019-06-08T02:23:18,42.805,6.029,CST-1368DR,9152,12806,15546,0.018,551
2019-06-08T02:26:19,42.805,6.029,CST-1368DR,9152,12806,15545,0.018,551
2019-06-08T02:29:21,42.805,6.029,CST-1368DR,9152,12805,15543,0.019,551
2019-06-08T02:32:22,42.805,6.029,CST-1368DR,9152,12796,15533,0.021,551
2019-06-08T02:35:24,42.805,6.029,CST-1368DR,9152,12808,15547,0.018,551
2019-06-08T02:38:25,42.805,6.029,CST-1368DR,9151,12806,15546,0.018,551
2019-06-08T02:41:27,42.805,6.029,CST-1368DR,9152,12803,15542,0.019,551
2019-06-08T02:44:28,42.805,6.029,CST-1368DR,9151,12807,15548,0.017,551
2019-06-08T02:47:29,42.805,6.029,CST-1368DR,9151,12806,15547,0.018,551
2019-06-08T02:50:31,42.805,6.029,CST-1368DR,9151,12804,15545,0.018,550
2019-06-08T02:53:32,42.805,6.029,CST-1368DR,9151,12806,15546,0.018,550
2019-06-08T02:56:34,42.805,6.029,CST-1368DR,9151,12806,15547,0.018,551
2019-06-08T02:59:35,42.805,6.029,CST-1368DR,9151,12806,15546,0.018,551
2019-06-08T03:02:36,42.805,6.029,CST-1368DR,9151,12806,15547,0.018,551
2019-06-08T03:05:38,42.805,6.029,CST-1368DR,9151,12806,15547,0.018,551
2019-06-08T03:08:39,42.805,6.029,CST-1368DR,9151,12807,15547,0.018,551
2019-06-08T03:11:41,42.805,6.029,CST-1368DR,9151,12806,15546,0.018,551
2019-06-08T03:14:42,42.805,6.029,CST-1368DR,9151,12804,15545,0.018,550
2019-06-08T03:17:43,42.805,6.029,CST-1368DR,9151,12807,15548,0.017,551
2019-06-08T03:20:45,42.805,6.029,CST-1368DR,9151,12805,15546,0.018,551
2019-06-08T03:23:46,42.805,6.029,CST-1368DR,9151,12806,15546,0.018,551
2019-06-08T03:26:48,42.805,6.029,CST-1368DR,9151,12806,15547,0.018,551
2019-06-08T03:29:49,42.805,6.029,CST-1368DR,9151,12805,15546,0.018,551
2019-06-08T03:32:50,42.805,6.029,CST-1368DR,9151,12806,15547,0.018,551
2019-06-08T03:35:52,42.805,6.029,CST-1368DR,9151,12805,15545,0.018,551
2019-06-08T03:38:53,42.805,6.029,CST-1368DR,9151,12806,15546,0.018,551
2019-06-08T03:41:55,42.805,6.029,CST-1368DR,9151,12807,15548,0.017,551
2019-06-08T03:44:56,42.805,6.029,CST-1368DR,9151,12806,15546,0.018,551
2019-06-08T03:47:58,42.805,6.029,CST-1368DR,9151,12804,15544,0.018,550
2019-06-08T03:50:59,42.805,6.029,CST-1368DR,9151,12803,15543,0.019,551
2019-06-08T03:54:00,42.805,6.029,CST-1368DR,9151,12806,15546,0.018,551
2019-06-08T03:57:02,42.805,6.029,CST-1368DR,9151,12805,15546,0.018,551
2019-06-08T04:00:03,42.805,6.029,CST-1368DR,9151,12805,15545,0.018,551
2019-06-08T04:03:05,42.805,6.029,CST-1368DR,9151,12799,15538,0.020,551
2019-06-08T04:06:06,42.805,6.029,CST-1368DR,9151,12804,15544,0.018,551
2019-06-08T04:09:07,42.805,6.029,CST-1368DR,9151,12804,15544,0.018,551
2019-06-08T04:12:09,42.805,6.029,CST-1368DR,9151,12805,15546,0.018,551
2019-06-08T04:15:10,42.805,6.029,CST-1368DR,9151,12805,15545,0.018,551
2019-06-08T04:18:12,42.805,6.029,CST-1368DR,9151,12805,15546,0.018,551
2019-06-08T04:21:13,42.805,6.029,CST-1368DR,9151,12806,15547,0.018,551
2019-06-08T04:24:14,42.805,6.029,CST-1368DR,9151,12803,15543,0.019,551
2019-06-08T04:27:16,42.805,6.029,CST-1368DR,9151,12805,15546,0.018,551
2019-06-08T04:30:17,42.805,6.029,CST-1368DR,9151,12805,15545,0.018,551
2019-06-08T04:33:19,42.805,6.029,CST-1368DR,9151,12805,15546,0.018,551
2019-06-08T04:36:20,42.805,6.029,CST-1368DR,9151,12805,15545,0.018,550
2019-06-08T04:39:21,42.805,6.029,CST-1368DR,9150,12805,15547,0.018,551
2019-06-08T04:42:23,42.805,6.029,CST-1368DR,9150,12806,15548,0.017,550
2019-06-08T04:45:24,42.805,6.029,CST-1368DR,9150,12805,15547,0.018,550
2019-06-08T04:48:26,42.805,6.029,CST-1368DR,9150,12806,15548,0.017,551
2019-06-08T04:51:27,42.805,6.029,CST-1368DR,9150,12805,15547,0.018,551
2019-06-08T04:54:29,42.805,6.029,CST-1368DR,9150,12805,15547,0.018,551
2019-06-08T04:57:30,42.805,6.029,CST-1368DR,9150,12805,15547,0.018,551
2019-06-08T05:00:31,42.805,6.029,CST-1368DR,9150,12805,15547,0.018,551
2019-06-08T05:03:33,42.805,6.029,CST-1368DR,9150,12805,15547,0.018,551
2019-06-08T05:06:34,42.805,6.029,CST-1368DR,9150,12805,15547,0.018,551
2019-06-08T05:09:36,42.805,6.029,CST-1368DR,9150,12804,15546,0.018,551
2019-06-08T05:12:37,42.805,6.029,CST-1368DR,9150,12804,15546,0.018,551
2019-06-08T05:15:38,42.805,6.029,CST-1368DR,9150,12805,15547,0.018,551
2019-06-08T05:18:40,42.805,6.029,CST-1368DR,9150,12803,15545,0.018,550
2019-06-08T05:21:41,42.805,6.029,CST-1368DR,9150,12805,15547,0.018,551
2019-06-08T05:24:43,42.805,6.029,CST-1368DR,9150,12805,15547,0.018,551
2019-06-08T05:27:44,42.805,6.029,CST-1368DR,9150,12805,15547,0.018,551
2019-06-08T05:30:45,42.805,6.029,CST-1368DR,9150,12804,15546,0.018,551
2019-06-08T05:33:47,42.805,6.029,CST-1368DR,9150,12805,15547,0.018,551
2019-06-08T05:36:48,42.805,6.029,CST-1368DR,9150,12804,15546,0.018,551
2019-06-08T05:39:50,42.805,6.029,CST-1368DR,9150,12805,15547,0.018,551
2019-06-08T05:42:51,42.805,6.029,CST-1368DR,9150,12805,15547,0.018,551
2019-06-08T05:45:53,42.805,6.029,CST-1368DR,9150,12803,15545,0.018,551
2019-06-08T05:48:54,42.805,6.029,CST-1368DR,9150,12803,15544,0.018,551
2019-06-08T05:51:55,42.805,6.029,CST-1368DR,9150,12805,15547,0.018,551
2019-06-08T05:54:57,42.805,6.029,CST-1368DR,9150,12803,15544,0.018,550
2019-06-08T05:57:58,42.805,6.029,CST-1368DR,9150,12802,15543,0.019,550
2019-06-08T06:01:00,42.805,6.029,CST-1368DR,9150,12803,15545,0.018,551
2019-06-08T06:04:01,42.805,6.029,CST-1368DR,9150,12804,15546,0.018,551
2019-06-08T06:07:02,42.805,6.029,CST-1368DR,9150,12803,15544,0.018,551
2019-06-08T06:10:04,42.805,6.029,CST-1368DR,9150,12803,15544,0.018,551
2019-06-08T06:13:05,42.805,6.029,CST-1368DR,9150,12803,15545,0.018,551
2019-06-08T06:16:07,42.805,6.029,CST-1368DR,9150,12804,15546,0.018,551
2019-06-08T06:19:08,42.805,6.029,CST-1368DR,9150,12798,15538,0.020,551
2019-06-08T06:22:09,42.805,6.029,CST-1368DR,9150,12803,15545,0.018,551
2019-06-08T06:25:11,42.805,6.029,CST-1368DR,9150,12801,15543,0.019,551
2019-06-08T06:28:12,42.805,6.029,CST-1368DR,9149,12801,15544,0.018,551
2019-06-08T06:31:14,42.805,6.029,CST-1368DR,9150,12803,15545,0.018,551
2019-06-08T06:34:15,42.805,6.029,CST-1368DR,9149,12803,15546,0.018,550
2019-06-08T06:37:16,42.805,6.029,CST-1368DR,9149,12803,15546,0.018,551
2019-06-08T06:40:18,42.805,6.029,CST-1368DR,9149,12803,15546,0.018,550
2019-06-08T06:43:19,42.805,6.029,CST-1368DR,9149,12803,15546,0.018,550
2019-06-08T06:46:21,42.805,6.029,CST-1368DR,9149,12803,15547,0.018,551
2019-06-08T06:49:22,42.805,6.029,CST-1368DR,9149,12803,15546,0.018,551
2019-06-08T06:52:24,42.805,6.029,CST-1368DR,9149,12803,15546,0.018,551
2019-06-08T06:55:25,42.805,6.029,CST-1368DR,9149,12803,15546,0.018,551
2019-06-08T06:58:26,42.805,6.029,CST-1368DR,9149,12803,15546,0.018,551
2019-06-08T07:01:28,42.805,6.029,CST-1368DR,9149,12804,15547,0.018,551
2019-06-08T07:04:29,42.805,6.029,CST-1368DR,9149,12803,15546,0.018,551
2019-06-08T07:07:31,42.805,6.029,CST-1368DR,9149,12803,15546,0.018,551
2019-06-08T07:10:32,42.805,6.029,CST-1368DR,9149,12803,15546,0.018,551
2019-06-08T07:13:33,42.805,6.029,CST-1368DR,9149,12800,15543,0.019,551
2019-06-08T07:16:35,42.805,6.029,CST-1368DR,9149,12800,15543,0.019,551
2019-06-08T07:19:36,42.805,6.029,CST-1368DR,9149,12802,15545,0.018,551
2019-06-08T07:22:38,42.805,6.029,CST-1368DR,9149,12801,15544,0.018,551
2019-06-08T07:25:39,42.805,6.029,CST-1368DR,9149,12803,15547,0.018,551
2019-06-08T07:28:40,42.805,6.029,CST-1368DR,9149,12802,15544,0.018,551
2019-06-08T07:31:42,42.805,6.029,CST-1368DR,9149,12802,15544,0.018,551
2019-06-08T07:34:43,42.805,6.029,CST-1368DR,9149,12795,15537,0.020,551
2019-06-08T07:37:45,42.805,6.029,CST-1368DR,9149,12802,15545,0.018,551
2019-06-08T07:40:46,42.805,6.029,CST-1368DR,9149,12803,15546,0.018,551
2019-06-08T07:43:47,42.805,6.029,CST-1368DR,9149,12802,15545,0.018,550
2019-06-08T07:46:49,42.805,6.029,CST-1368DR,9149,12802,15545,0.018,551
2019-06-08T07:49:50,42.805,6.029,CST-1368DR,9149,12803,15546,0.018,551
2019-06-08T07:52:52,42.805,6.029,CST-1368DR,9149,12803,15546,0.018,551
2019-06-08T07:55:53,42.805,6.029,CST-1368DR,9149,12802,15545,0.018,551
2019-06-08T07:58:55,42.805,6.029,CST-1368DR,9149,12802,15545,0.018,551
2019-06-08T08:01:56,42.805,6.029,CST-1368DR,9149,12800,15542,0.019,551
2019-06-08T08:04:57,42.805,6.029,CST-1368DR,9148,12801,15546,0.018,551
2019-06-08T08:07:59,42.805,6.029,CST-1368DR,9148,12801,15546,0.018,551
2019-06-08T08:11:00,42.805,6.029,CST-1368DR,9148,12800,15544,0.018,551
2019-06-08T08:14:02,42.805,6.029,CST-1368DR,9148,12801,15545,0.018,550
2019-06-08T08:17:03,42.805,6.029,CST-1368DR,9148,12801,15545,0.018,551
2019-06-08T08:20:04,42.805,6.029,CST-1368DR,9148,12801,15545,0.018,551
2019-06-08T08:23:06,42.805,6.029,CST-1368DR,9148,12802,15546,0.018,551
2019-06-08T08:26:07,42.805,6.029,CST-1368DR,9148,12800,15544,0.018,551
2019-06-08T08:29:09,42.805,6.029,CST-1368DR,9148,12801,15545,0.018,551
2019-06-08T08:32:10,42.805,6.029,CST-1368DR,9148,12801,15545,0.018,551
2019-06-08T08:35:11,42.805,6.029,CST-1368DR,9148,12800,15544,0.018,551
2019-06-08T08:38:13,42.805,6.029,CST-1368DR,9148,12801,15545,0.018,551
2019-06-08T08:41:14,42.805,6.029,CST-1368DR,9148,12795,15538,0.020,551
2019-06-08T08:44:16,42.805,6.029,CST-1368DR,9148,12801,15545,0.018,551
2019-06-08T08:47:17,42.805,6.029,CST-1368DR,9148,12800,15544,0.018,551
2019-06-08T08:50:19,42.805,6.029,CST-1368DR,9148,12800,15544,0.018,551
2019-06-08T08:53:20,42.805,6.029,CST-1368DR,9148,12800,15544,0.018,551
2019-06-08T08:56:21,42.805,6.029,CST-1368DR,9148,12800,15544,0.018,551
2019-06-08T08:59:23,42.805,6.029,CST-1368DR,9148,12799,15543,0.019,551
2019-06-08T09:02:24,42.805,6.029,CST-1368DR,9148,12801,15545,0.018,550
2019-06-08T09:05:26,42.805,6.029,CST-1368DR,9148,12799,15543,0.019,550
2019-06-08T09:08:27,42.805,6.029,CST-1368DR,9148,12788,15530,0.022,551
2019-06-08T09:11:28,42.805,6.029,CST-1368DR,9148,12801,15545,0.018,551
2019-06-08T09:14:30,42.805,6.029,CST-1368DR,9148,12800,15544,0.018,551
2019-06-08T09:17:31,42.805,6.029,CST-1368DR,9148,12801,15545,0.018,551
2019-06-08T09:20:33,42.805,6.029,CST-1368DR,9148,12800,15544,0.018,551
2019-06-08T09:23:34,42.805,6.029,CST-1368DR,9148,12799,15543,0.019,551
2019-06-08T09:26:35,42.805,6.029,CST-1368DR,9147,12795,15539,0.020,551
2019-06-08T09:29:37,42.805,6.029,CST-1368DR,9148,12799,15543,0.019,550
2019-06-08T09:32:38,42.805,6.029,CST-1368DR,9148,12799,15543,0.019,551
2019-06-08T09:35:40,42.805,6.029,CST-1368DR,9147,12795,15539,0.020,551
2019-06-08T09:38:41,42.805,6.029,CST-1368DR,9147,12799,15544,0.018,551
2019-06-08T09:41:42,42.805,6.029,CST-1368DR,9147,12800,15545,0.018,551
2019-06-08T09:44:44,42.805,6.029,CST-1368DR,9147,12799,15545,0.018,551
2019-06-08T09:47:45,42.805,6.029,CST-1368DR,9147,12799,15544,0.018,551
2019-06-08T09:50:47,42.805,6.029,CST-1368DR,9147,12799,15544,0.018,551
2019-06-08T09:53:48,42.805,6.029,CST-1368DR,9147,12800,15545,0.018,550
2019-06-08T09:56:50,42.805,6.029,CST-1368DR,9147,12800,15545,0.018,551
2019-06-08T09:59:51,42.805,6.029,CST-1368DR,9147,12798,15543,0.019,551
2019-06-08T10:02:52,42.805,6.029,CST-1368DR,9147,12796,15541,0.019,551
2019-06-08T10:05:54,42.805,6.029,CST-1368DR,9147,12800,15545,0.018,551
2019-06-08T10:08:55,42.805,6.029,CST-1368DR,9147,12798,15543,0.019,551
2019-06-08T10:11:57,42.805,6.029,CST-1368DR,9147,12798,15543,0.019,551
2019-06-08T10:14:58,42.805,6.029,CST-1368DR,9147,12800,15545,0.018,551
2019-06-08T10:17:59,42.805,6.029,CST-1368DR,9147,12800,15546,0.018,551
2019-06-08T10:21:01,42.805,6.029,CST-1368DR,9147,12799,15544,0.018,551
2019-06-08T10:24:02,42.805,6.029,CST-1368DR,9147,12799,15544,0.018,551
2019-06-08T10:27:04,42.805,6.029,CST-1368DR,9147,12798,15544,0.018,551
2019-06-08T10:30:05,42.805,6.029,CST-1368DR,9147,12797,15542,0.019,551
2019-06-08T10:33:06,42.805,6.029,CST-1368DR,9147,12798,15544,0.018,551
2019-06-08T10:36:08,42.805,6.029,CST-1368DR,9147,12799,15544,0.018,551
2019-06-08T10:39:09,42.805,6.029,CST-1368DR,9147,12798,15543,0.019,550
2019-06-08T10:42:11,42.805,6.029,CST-1368DR,9147,12799,15544,0.018,551
2019-06-08T10:45:12,42.805,6.029,CST-1368DR,9147,12796,15541,0.019,551
2019-06-08T10:48:13,42.805,6.029,CST-1368DR,9147,12797,15542,0.019,550
2019-06-08T10:51:15,42.805,6.029,CST-1368DR,9147,12796,15541,0.019,551
2019-06-08T10:54:16,42.805,6.029,CST-1368DR,9147,12799,15545,0.018,551
2019-06-08T10:57:18,42.805,6.029,CST-1368DR,9147,12799,15544,0.018,551
2019-06-08T11:00:19,42.805,6.029,CST-1368DR,9146,12800,15547,0.018,551
2019-06-08T11:03:21,42.805,6.029,CST-1368DR,9146,12799,15546,0.018,551
2019-06-08T11:06:22,42.805,6.029,CST-1368DR,9146,12798,15545,0.018,551
2019-06-08T11:09:23,42.805,6.029,CST-1368DR,9146,12799,15545,0.018,551
2019-06-08T11:12:25,42.805,6.029,CST-1368DR,9146,12798,15545,0.018,551
2019-06-08T11:15:26,42.805,6.029,CST-1368DR,9146,12798,15545,0.018,551
2019-06-08T11:18:28,42.805,6.029,CST-1368DR,9146,12798,15544,0.018,551
2019-06-08T11:21:29,42.805,6.029,CST-1368DR,9146,12798,15545,0.018,551
2019-06-08T11:24:30,42.805,6.029,CST-1368DR,9146,12798,15545,0.018,551
2019-06-08T11:27:32,42.805,6.029,CST-1368DR,9146,12798,15544,0.018,550
2019-06-08T11:30:33,42.805,6.029,CST-1368DR,9146,12798,15545,0.018,551
2019-06-08T11:33:35,42.805,6.029,CST-1368DR,9146,12799,15545,0.018,551
2019-06-08T11:36:36,42.805,6.029,CST-1368DR,9146,12793,15539,0.020,551
2019-06-08T11:39:37,42.805,6.029,CST-1368DR,9146,12798,15545,0.018,551
2019-06-08T11:42:39,42.805,6.029,CST-1368DR,9146,12796,15542,0.019,551
2019-06-08T11:45:40,42.805,6.029,CST-1368DR,9146,12798,15545,0.018,551
2019-06-08T11:48:42,42.805,6.029,CST-1368DR,9146,12799,15545,0.018,551
2019-06-08T11:51:43,42.805,6.029,CST-1368DR,9146,12798,15545,0.018,551
2019-06-08T11:54:44,42.805,6.029,CST-1368DR,9146,12798,15544,0.018,551
2019-06-08T11:57:46,42.805,6.029,CST-1368DR,9146,12797,15543,0.019,551
2019-06-08T12:00:47,42.805,6.029,CST-1368DR,9146,12796,15543,0.019,551
2019-06-08T12:03:49,42.805,6.029,CST-1368DR,9146,12795,15541,0.019,551
2019-06-08T12:06:50,42.805,6.029,CST-1368DR,9146,12796,15542,0.019,551
2019-06-08T12:09:52,42.805,6.029,CST-1368DR,9146,12797,15543,0.019,551
2019-06-08T12:12:53,42.805,6.029,CST-1368DR,9145,12796,15544,0.018,551
2019-06-08T12:15:54,42.805,6.029,CST-1368DR,9145,12796,15544,0.018,551
2019-06-08T12:18:56,42.805,6.029,CST-1368DR,9145,12796,15543,0.019,551
2019-06-08T12:21:57,42.805,6.029,CST-1368DR,9145,12795,15542,0.019,551
2019-06-08T12:24:59,42.805,6.029,CST-1368DR,9145,12795,15542,0.019,551
2019-06-08T12:28:00,42.805,6.029,CST-1368DR,9145,12795,15543,0.019,551
2019-06-08T12:31:01,42.805,6.029,CST-1368DR,9145,12797,15545,0.018,551
2019-06-08T12:34:03,42.805,6.029,CST-1368DR,9145,12796,15544,0.018,551
2019-06-08T12:37:04,42.805,6.029,CST-1368DR,9145,12698,15425,0.049,551
2019-06-08T12:40:06,42.805,6.029,CST-1368DR,9145,12796,15544,0.018,551
2019-06-08T12:43:07,42.805,6.029,CST-1368DR,9145,12796,15544,0.018,551
2019-06-08T12:46:08,42.805,6.029,CST-1368DR,9145,12798,15546,0.018,551
2019-06-08T12:49:10,42.805,6.029,CST-1368DR,9145,12794,15542,0.019,551
2019-06-08T12:52:11,42.805,6.029,CST-1368DR,9145,12797,15545,0.018,551
2019-06-08T12:55:13,42.805,6.029,CST-1368DR,9145,12789,15535,0.021,551
2019-06-08T12:58:14,42.805,6.029,CST-1368DR,9145,12796,15544,0.018,550
2019-06-08T13:01:15,42.805,6.029,CST-1368DR,9145,12797,15545,0.018,551
2019-06-08T13:04:17,42.805,6.029,CST-1368DR,9145,12796,15544,0.018,551
2019-06-08T13:07:18,42.805,6.029,CST-1368DR,9145,12796,15543,0.019,551
2019-06-08T13:10:20,42.805,6.029,CST-1368DR,9145,12793,15540,0.020,551
2019-06-08T13:13:21,42.805,6.029,CST-1368DR,9145,12788,15534,0.021,551
2019-06-08T13:16:23,42.805,6.029,CST-1368DR,9145,12797,15545,0.018,551
2019-06-08T13:19:24,42.805,6.029,CST-1368DR,9145,12796,15544,0.018,550
2019-06-08T13:22:25,42.805,6.029,CST-1368DR,9145,12794,15541,0.019,551
2019-06-08T13:25:27,42.805,6.029,CST-1368DR,9145,12795,15542,0.019,551
2019-06-08T13:28:28,42.805,6.029,CST-1368DR,9145,12788,15534,0.021,551
2019-06-08T13:31:30,42.805,6.029,CST-1368DR,9145,12797,15545,0.018,551
2019-06-08T13:34:31,42.805,6.029,CST-1368DR,9145,12795,15543,0.019,551
2019-06-08T13:37:32,42.805,6.029,CST-1368DR,9145,12798,15546,0.018,551
2019-06-08T13:40:34,42.805,6.029,CST-1368DR,9145,12796,15544,0.018,551
2019-06-08T13:43:35,42.805,6.029,CST-1368DR,9144,12796,15546,0.018,551
2019-06-08T13:46:37,42.805,6.029,CST-1368DR,9144,12798,15547,0.018,550
2019-06-08T13:49:38,42.805,6.029,CST-1368DR,9144,12797,15546,0.018,550
2019-06-08T13:52:39,42.805,6.029,CST-1368DR,9144,12798,15548,0.017,551
2019-06-08T13:55:41,42.805,6.029,CST-1368DR,9144,12793,15542,0.019,551
2019-06-08T13:58:42,42.805,6.029,CST-1368DR,9144,12796,15545,0.018,551
2019-06-08T14:01:44,42.805,6.029,CST-1368DR,9144,12797,15547,0.018,551
2019-06-08T14:04:45,42.805,6.029,CST-1368DR,9144,12795,15544,0.018,551
2019-06-08T14:07:47,42.805,6.029,CST-1368DR,9144,12796,15545,0.018,550
2019-06-08T14:10:48,42.805,6.029,CST-1368DR,9144,12796,15546,0.018,551
2019-06-08T14:13:49,42.805,6.029,CST-1368DR,9144,12797,15546,0.018,551
2019-06-08T14:16:51,42.805,6.029,CST-1368DR,9144,12797,15547,0.018,551
2019-06-08T14:19:52,42.805,6.029,CST-1368DR,9144,12796,15545,0.018,551
2019-06-08T14:22:54,42.805,6.029,CST-1368DR,9144,12797,15546,0.018,551
2019-06-08T14:25:55,42.805,6.029,CST-1368DR,9144,12796,15546,0.018,551
2019-06-08T14:28:56,42.805,6.029,CST-1368DR,9144,12796,15546,0.018,550
2019-06-08T14:31:58,42.805,6.029,CST-1368DR,9144,12796,15546,0.018,551
2019-06-08T14:34:59,42.805,6.029,CST-1368DR,9144,12796,15545,0.018,550
2019-06-08T14:38:01,42.805,6.029,CST-1368DR,9144,12797,15546,0.018,551
2019-06-08T14:41:02,42.805,6.029,CST-1368DR,9144,12796,15546,0.018,551
2019-06-08T14:44:03,42.805,6.029,CST-1368DR,9144,12797,15547,0.018,551
2019-06-08T14:47:05,42.805,6.029,CST-1368DR,9144,12789,15536,0.021,550
2019-06-08T14:50:06,42.805,6.029,CST-1368DR,9144,12794,15543,0.019,550
2019-06-08T14:53:08,42.805,6.029,CST-1368DR,9144,12798,15548,0.017,551
2019-06-08T14:56:09,42.805,6.029,CST-1368DR,9144,12794,15542,0.019,551
2019-06-08T14:59:10,42.805,6.029,CST-1368DR,9144,12796,15546,0.018,551
2019-06-08T15:02:12,42.805,6.029,CST-1368DR,9144,12796,15546,0.018,551
2019-06-08T15:05:13,42.805,6.029,CST-1368DR,9144,12796,15546,0.018,551
2019-06-08T15:08:15,42.805,6.029,CST-1368DR,9144,12796,15546,0.018,551
2019-06-08T15:11:16,42.805,6.029,CST-1368DR,9144,12796,15546,0.018,551
2019-06-08T15:14:18,42.805,6.029,CST-1368DR,9144,12796,15545,0.018,551
2019-06-08T15:17:19,42.805,6.029,CST-1368DR,9144,12794,15542,0.019,551
2019-06-08T15:20:20,42.805,6.029,CST-1368DR,9144,12796,15545,0.018,551
2019-06-08T15:23:22,42.805,6.029,CST-1368DR,9143,12797,15548,0.017,551
2019-06-08T15:26:23,42.805,6.029,CST-1368DR,9143,12795,15546,0.018,551
2019-06-08T15:29:25,42.805,6.029,CST-1368DR,9143,12795,15545,0.018,551
2019-06-08T15:32:26,42.805,6.029,CST-1368DR,9143,12795,15545,0.018,551
2019-06-08T15:35:27,42.805,6.029,CST-1368DR,9143,12796,15547,0.018,551
2019-06-08T15:38:29,42.805,6.029,CST-1368DR,9143,12796,15546,0.018,551
2019-06-08T15:41:30,42.805,6.029,CST-1368DR,9143,12794,15544,0.018,551
2019-06-08T15:44:32,42.805,6.029,CST-1368DR,9143,12795,15546,0.018,551
2019-06-08T15:47:33,42.805,6.029,CST-1368DR,9143,12795,15545,0.018,551
2019-06-08T15:50:34,42.805,6.029,CST-1368DR,9143,12796,15546,0.018,551
2019-06-08T15:53:36,42.805,6.029,CST-1368DR,9143,12796,15546,0.018,551
2019-06-08T15:56:37,42.805,6.029,CST-1368DR,9143,12795,15545,0.018,551
2019-06-08T15:59:39,42.805,6.029,CST-1368DR,9143,12796,15547,0.018,551
2019-06-08T16:02:40,42.805,6.029,CST-1368DR,9143,12794,15544,0.018,551
2019-06-08T16:05:41,42.805,6.029,CST-1368DR,9143,12792,15543,0.019,551
2019-06-08T16:08:43,42.805,6.029,CST-1368DR,9143,12794,15544,0.018,551
2019-06-08T16:11:44,42.805,6.029,CST-1368DR,9143,12793,15543,0.019,551
2019-06-08T16:14:46,42.805,6.029,CST-1368DR,9143,12794,15544,0.018,551
2019-06-08T16:17:47,42.805,6.029,CST-1368DR,9143,12794,15544,0.018,551
2019-06-08T16:20:49,42.805,6.029,CST-1368DR,9143,12795,15546,0.018,550
2019-06-08T16:23:50,42.805,6.029,CST-1368DR,9143,12795,15546,0.018,551
2019-06-08T16:26:51,42.805,6.029,CST-1368DR,9143,12796,15546,0.018,551
2019-06-08T16:29:53,42.805,6.029,CST-1368DR,9143,12796,15546,0.018,551
2019-06-08T16:32:54,42.805,6.029,CST-1368DR,9143,12795,15546,0.018,551
2019-06-08T16:35:56,42.805,6.029,CST-1368DR,9143,12796,15546,0.018,551